Location: ??????????
(48.4699°N, 37.9573°E)
Time: 20:43:07
(UTC+00:00)

COSMO-SKYMED 1 - Pass Details

Date: 20 January 2021
Orbit: 621 x 623 km, 97.9° (Epoch: 02 March)

Event Time Altitude Azimuth Distance (km) Brightness Sun altitude
Rises 14:41:28 0° 25° (NNE) 2,917 5.6 -5.8°
Reaches altitude 10° 14:44:05 10° 40° (NE) 2,004 4.6 -6.1°
Maximum altitude 14:47:32 23° 93° (E) 1,351 3.8 -6.7°
Drops below altitude 10° 14:50:57 10° 145° (SE) 1,990 5.0 -7.2°
Sets 14:53:31 0° 160° (SSE) 2,890 6.0 -7.6°
